Time,TemperatureF,DewpointF,PressureIn,WindDirection,WindDirectionDegrees,WindSpeedMPH,WindSpeedGustMPH,Humidity,HourlyPrecipIn,Conditions,Clouds,dailyrainin,SoftwareType,DateUTC
2013-01-29 00:01:00,31.0,31.0,29.64,South,171,0.0,0.0,99,0.00,,,0.34,,2013-01-29 06:01:00,
2013-01-29 00:11:00,31.0,31.0,29.64,South,171,0.0,0.0,99,0.00,,,0.34,,2013-01-29 06:11:00,
2013-01-29 00:21:00,31.0,31.0,29.63,ESE,112,0.0,0.0,99,0.00,,,0.34,,2013-01-29 06:21:00,
2013-01-29 00:32:00,31.0,31.0,29.62,ESE,119,0.0,0.0,99,0.00,,,0.34,,2013-01-29 06:32:00,
2013-01-29 00:41:00,31.0,31.0,29.62,ESE,119,0.0,0.0,99,0.00,,,0.34,,2013-01-29 06:41:00,
2013-01-29 00:52:00,31.0,31.0,29.61,ESE,119,0.0,0.0,99,0.00,,,0.34,,2013-01-29 06:52:00,
2013-01-29 01:01:00,31.0,31.0,29.60,ESE,119,0.0,0.0,99,0.00,,,0.34,,2013-01-29 07:01:00,
2013-01-29 01:11:00,31.0,31.0,29.60,ESE,119,0.0,0.0,99,0.00,,,0.34,,2013-01-29 07:11:00,
2013-01-29 01:21:00,31.0,31.0,29.59,East,81,0.0,0.0,99,0.00,,,0.34,,2013-01-29 07:21:00,
2013-01-29 01:31:00,31.0,31.0,29.59,East,81,0.0,0.0,99,0.00,,,0.34,,2013-01-29 07:31:00,
2013-01-29 01:41:00,31.0,31.0,29.59,East,81,0.0,0.0,99,0.00,,,0.34,,2013-01-29 07:41:00,
2013-01-29 01:52:00,31.0,31.0,29.59,East,81,0.0,0.0,99,0.00,,,0.34,,2013-01-29 07:52:00,
2013-01-29 02:02:00,31.0,31.0,29.57,NNE,15,0.0,0.0,99,0.00,,,0.34,,2013-01-29 08:02:00,
2013-01-29 02:11:00,31.0,31.0,29.57,NNE,15,0.0,0.0,99,0.00,,,0.34,,2013-01-29 08:11:00,
2013-01-29 02:21:00,31.0,31.0,29.57,NNE,15,0.0,0.0,99,0.00,,,0.34,,2013-01-29 08:21:00,
2013-01-29 02:31:00,31.0,31.0,29.57,NNE,15,0.0,0.0,99,0.00,,,0.34,,2013-01-29 08:31:00,
2013-01-29 02:41:00,31.0,31.0,29.57,NNE,15,0.0,0.0,99,0.00,,,0.34,,2013-01-29 08:41:00,
2013-01-29 02:52:00,31.0,31.0,29.56,NNE,15,0.0,0.0,99,0.00,,,0.34,,2013-01-29 08:52:00,
2013-01-29 03:01:00,31.0,31.0,29.57,NNE,15,0.0,0.0,99,0.00,,,0.34,,2013-01-29 09:01:00,
2013-01-29 03:11:00,31.0,31.0,29.57,NNE,15,0.0,0.0,99,0.00,,,0.34,,2013-01-29 09:11:00,
2013-01-29 03:21:00,31.0,31.0,29.57,NNE,15,0.0,0.0,99,0.02,,,0.36,,2013-01-29 09:21:00,
2013-01-29 03:31:00,31.0,31.0,29.58,NNE,15,0.0,0.0,99,0.02,,,0.36,,2013-01-29 09:31:00,
2013-01-29 03:42:00,31.0,31.0,29.58,NNE,15,0.0,0.0,99,0.02,,,0.36,,2013-01-29 09:42:00,
2013-01-29 03:52:00,31.0,31.0,29.58,North,9,0.0,0.0,99,0.02,,,0.36,,2013-01-29 09:52:00,
2013-01-29 04:01:00,31.0,31.0,29.57,North,9,0.0,0.0,99,0.02,,,0.36,,2013-01-29 10:01:00,
2013-01-29 04:11:00,31.0,31.0,29.57,North,9,0.0,0.0,99,0.02,,,0.36,,2013-01-29 10:11:00,
2013-01-29 04:21:00,31.0,31.0,29.57,North,9,0.0,0.0,99,0.00,,,0.36,,2013-01-29 10:21:00,
2013-01-29 04:32:00,31.0,31.0,29.55,North,9,0.0,0.0,99,0.00,,,0.36,,2013-01-29 10:32:00,
2013-01-29 04:41:00,31.0,31.0,29.55,North,9,0.0,0.0,99,0.00,,,0.36,,2013-01-29 10:41:00,
2013-01-29 04:52:00,31.0,31.0,29.56,North,9,0.0,0.0,99,0.00,,,0.36,,2013-01-29 10:52:00,
2013-01-29 05:01:00,31.0,31.0,29.56,NNE,12,0.0,0.0,99,0.00,,,0.36,,2013-01-29 11:01:00,
2013-01-29 05:11:00,31.0,31.0,29.56,NNE,12,0.0,0.0,99,0.00,,,0.36,,2013-01-29 11:11:00,
2013-01-29 05:21:00,31.0,31.0,29.56,North,9,0.0,6.0,99,0.00,,,0.36,,2013-01-29 11:21:00,
2013-01-29 05:32:00,31.0,31.0,29.57,NNE,14,0.0,6.0,99,0.00,,,0.36,,2013-01-29 11:32:00,
2013-01-29 05:42:00,31.0,31.0,29.57,NNE,14,0.0,6.0,99,0.00,,,0.36,,2013-01-29 11:42:00,
2013-01-29 05:52:00,31.0,31.0,29.55,ENE,59,4.0,6.0,99,0.00,,,0.36,,2013-01-29 11:52:00,
2013-01-29 06:02:00,30.0,30.0,29.53,NNE,14,0.0,5.0,99,0.00,,,0.36,,2013-01-29 12:02:00,
2013-01-29 06:12:00,30.0,30.0,29.53,NNE,14,0.0,0.0,99,0.00,,,0.36,,2013-01-29 12:12:00,
2013-01-29 06:22:00,30.0,30.0,29.53,NNE,14,0.0,0.0,99,0.00,,,0.36,,2013-01-29 12:22:00,
2013-01-29 06:32:00,31.0,31.0,29.53,NNE,14,0.0,0.0,99,0.00,,,0.36,,2013-01-29 12:32:00,
2013-01-29 06:42:00,31.0,31.0,29.53,NNE,14,0.0,0.0,99,0.00,,,0.36,,2013-01-29 12:42:00,
2013-01-29 06:53:00,31.0,31.0,29.53,NNE,14,0.0,0.0,99,0.00,,,0.36,,2013-01-29 12:53:00,
2013-01-29 07:02:00,31.0,31.0,29.55,NNE,14,0.0,0.0,99,0.00,,,0.36,,2013-01-29 13:02:00,
2013-01-29 07:11:00,31.0,31.0,29.55,NNE,14,0.0,0.0,99,0.00,,,0.36,,2013-01-29 13:11:00,
2013-01-29 07:22:00,31.0,31.0,29.56,NNE,14,0.0,0.0,99,0.00,,,0.36,,2013-01-29 13:22:00,
2013-01-29 07:32:00,31.0,31.0,29.55,NNE,14,0.0,0.0,99,0.00,,,0.36,,2013-01-29 13:32:00,
2013-01-29 07:42:00,31.0,31.0,29.55,NNE,14,0.0,0.0,99,0.00,,,0.36,,2013-01-29 13:42:00,
2013-01-29 07:52:00,31.0,31.0,29.55,NNE,14,0.0,0.0,99,0.00,,,0.36,,2013-01-29 13:52:00,
2013-01-29 08:02:00,31.0,31.0,29.57,NW,326,0.0,3.0,99,0.00,,,0.36,,2013-01-29 14:02:00,
2013-01-29 08:12:00,31.0,31.0,29.58,NNW,336,0.0,0.0,99,0.00,,,0.36,,2013-01-29 14:12:00,
2013-01-29 08:21:00,31.0,31.0,29.58,NNW,336,0.0,0.0,99,0.00,,,0.36,,2013-01-29 14:21:00,
2013-01-29 08:32:00,31.0,31.0,29.60,NNW,327,0.0,5.0,99,0.00,,,0.36,,2013-01-29 14:32:00,
2013-01-29 08:43:00,31.0,31.0,29.60,NNW,327,0.0,5.0,99,0.00,,,0.36,,2013-01-29 14:43:00,
2013-01-29 08:52:00,31.0,31.0,29.58,North,7,5.0,8.0,99,0.00,,,0.36,,2013-01-29 14:52:00,
2013-01-29 09:02:00,31.0,31.0,29.59,North,351,6.0,9.0,99,0.00,,,0.36,,2013-01-29 15:02:00,
2013-01-29 09:12:00,31.0,31.0,29.59,North,351,6.0,9.0,99,0.00,,,0.36,,2013-01-29 15:12:00,
2013-01-29 09:22:00,31.0,31.0,29.61,North,0,0.0,7.0,99,0.00,,,0.36,,2013-01-29 15:22:00,
2013-01-29 09:33:00,32.0,32.0,29.61,North,11,0.0,6.0,99,0.00,,,0.36,,2013-01-29 15:33:00,
2013-01-29 09:42:00,32.0,32.0,29.61,North,11,0.0,6.0,99,0.00,,,0.36,,2013-01-29 15:42:00,
2013-01-29 09:53:00,32.0,32.0,29.60,NNE,16,0.0,7.0,99,0.00,,,0.36,,2013-01-29 15:53:00,
2013-01-29 10:02:00,32.0,32.0,29.60,NNE,15,6.0,10.0,99,0.00,,,0.36,,2013-01-29 16:02:00,
2013-01-29 10:12:00,32.0,32.0,29.60,NNE,15,6.0,10.0,99,0.00,,,0.36,,2013-01-29 16:12:00,
2013-01-29 10:22:00,32.0,32.0,29.61,North,350,5.0,8.0,99,0.00,,,0.36,,2013-01-29 16:22:00,
2013-01-29 10:32:00,32.0,32.0,29.62,North,2,8.0,12.0,99,0.00,,,0.30,,2013-01-29 16:32:00,
2013-01-29 10:42:00,32.0,32.0,29.62,North,2,8.0,12.0,99,0.00,,,0.30,,2013-01-29 16:42:00,
2013-01-29 10:53:00,32.0,32.0,29.65,North,11,3.0,9.0,99,0.00,,,0.30,,2013-01-29 16:53:00,
2013-01-29 11:03:00,32.0,32.0,29.63,NNE,26,0.0,11.0,99,0.00,,,0.30,,2013-01-29 17:03:00,
2013-01-29 11:12:00,32.0,32.0,29.63,NNE,26,0.0,11.0,99,0.00,,,0.30,,2013-01-29 17:12:00,
2013-01-29 11:22:00,32.0,32.0,29.63,NNE,21,4.0,9.0,99,0.00,,,0.28,,2013-01-29 17:22:00,
2013-01-29 11:32:00,33.0,33.0,29.64,ENE,57,0.0,7.0,99,0.00,,,0.28,,2013-01-29 17:32:00,
2013-01-29 11:42:00,33.0,33.0,29.64,ENE,57,0.0,7.0,99,0.00,,,0.28,,2013-01-29 17:42:00,
2013-01-29 11:52:00,33.0,32.0,29.65,NE,43,6.0,11.0,96,0.00,,,0.28,,2013-01-29 17:52:00,
2013-01-29 12:03:00,34.0,33.0,29.65,NE,36,0.0,9.0,96,0.00,,,0.28,,2013-01-29 18:03:00,
2013-01-29 12:12:00,34.0,33.0,29.65,NE,36,0.0,9.0,96,0.00,,,0.28,,2013-01-29 18:12:00,
2013-01-29 12:22:00,34.0,33.0,29.65,NE,52,0.0,0.0,95,0.00,,,0.10,,2013-01-29 18:22:00,
2013-01-29 12:33:00,33.0,32.0,29.65,North,2,3.0,10.0,95,0.00,,,0.10,,2013-01-29 18:33:00,
2013-01-29 12:42:00,33.0,32.0,29.65,North,2,3.0,10.0,95,0.00,,,0.10,,2013-01-29 18:42:00,
2013-01-29 12:52:00,34.0,32.0,29.62,NE,52,5.0,10.0,94,0.00,,,0.10,,2013-01-29 18:52:00,
2013-01-29 13:02:00,33.0,32.0,29.62,NNE,16,5.0,10.0,95,0.00,,,0.10,,2013-01-29 19:02:00,
2013-01-29 13:12:00,33.0,32.0,29.62,NNE,16,5.0,10.0,95,0.00,,,0.10,,2013-01-29 19:12:00,
2013-01-29 13:22:00,34.0,32.0,29.63,North,7,0.0,6.0,94,0.00,,,0.10,,2013-01-29 19:22:00,
2013-01-29 13:32:00,34.0,32.0,29.63,NNE,16,6.0,10.0,93,0.00,,,0.10,,2013-01-29 19:32:00,
2013-01-29 13:42:00,34.0,32.0,29.63,NNE,16,6.0,10.0,93,0.00,,,0.10,,2013-01-29 19:42:00,
2013-01-29 13:52:00,34.0,32.0,29.62,NNE,32,3.0,7.0,93,0.00,,,0.10,,2013-01-29 19:52:00,
2013-01-29 14:02:00,35.0,33.0,29.61,North,7,7.0,9.0,92,0.00,,,0.10,,2013-01-29 20:02:00,
2013-01-29 14:12:00,35.0,33.0,29.61,North,7,7.0,9.0,92,0.00,,,0.10,,2013-01-29 20:12:00,
2013-01-29 14:22:00,34.0,32.0,29.61,NNE,33,3.0,10.0,93,0.00,,,0.00,,2013-01-29 20:22:00,
2013-01-29 14:33:00,34.0,32.0,29.62,NE,42,7.0,13.0,92,0.00,,,0.00,,2013-01-29 20:33:00,
2013-01-29 14:42:00,34.0,32.0,29.62,NE,42,7.0,13.0,92,0.00,,,0.00,,2013-01-29 20:42:00,
2013-01-29 14:53:00,34.0,31.0,29.61,ENE,74,5.0,11.0,89,0.00,,,0.00,,2013-01-29 20:53:00,
2013-01-29 15:02:00,34.0,31.0,29.61,East,91,10.0,13.0,89,0.00,,,0.00,,2013-01-29 21:02:00,
2013-01-29 15:12:00,34.0,31.0,29.61,East,91,10.0,13.0,89,0.00,,,0.00,,2013-01-29 21:12:00,
2013-01-29 15:22:00,34.0,31.0,29.63,NNE,19,3.0,9.0,89,0.00,,,0.00,,2013-01-29 21:22:00,
2013-01-29 15:33:00,34.0,32.0,29.63,NNE,21,8.0,13.0,91,0.00,,,0.00,,2013-01-29 21:33:00,
2013-01-29 15:42:00,34.0,32.0,29.63,NNE,21,8.0,13.0,91,0.00,,,0.00,,2013-01-29 21:42:00,
2013-01-29 15:53:00,34.0,32.0,29.65,NE,39,5.0,9.0,91,0.00,,,0.00,,2013-01-29 21:53:00,
2013-01-29 16:02:00,34.0,31.0,29.66,NNE,25,0.0,9.0,90,0.00,,,0.00,,2013-01-29 22:02:00,
2013-01-29 16:12:00,34.0,31.0,29.66,NNE,25,0.0,9.0,90,0.00,,,0.00,,2013-01-29 22:12:00,
2013-01-29 16:22:00,34.0,32.0,29.64,NE,56,4.0,13.0,92,0.00,,,0.00,,2013-01-29 22:22:00,
2013-01-29 16:33:00,33.0,31.0,29.64,NNE,12,5.0,11.0,92,0.00,,,0.00,,2013-01-29 22:33:00,
2013-01-29 16:42:00,33.0,31.0,29.64,NNE,12,5.0,11.0,92,0.00,,,0.00,,2013-01-29 22:42:00,
2013-01-29 16:53:00,33.0,31.0,29.65,NNE,15,6.0,14.0,91,0.00,,,0.00,,2013-01-29 22:53:00,
2013-01-29 17:02:00,33.0,30.0,29.65,NE,36,10.0,13.0,90,0.00,,,0.00,,2013-01-29 23:02:00,
2013-01-29 17:12:00,33.0,30.0,29.65,NE,36,10.0,13.0,90,0.00,,,0.00,,2013-01-29 23:12:00,
2013-01-29 17:22:00,32.0,29.0,29.65,NNE,30,7.0,13.0,90,0.00,,,0.00,,2013-01-29 23:22:00,
2013-01-29 17:32:00,32.0,29.0,29.65,NE,35,5.0,12.0,90,0.00,,,0.00,,2013-01-29 23:32:00,
2013-01-29 17:42:00,32.0,29.0,29.65,NE,35,5.0,12.0,90,0.00,,,0.00,,2013-01-29 23:42:00,
2013-01-29 17:53:00,32.0,29.0,29.66,North,7,5.0,10.0,90,0.00,,,0.00,,2013-01-29 23:53:00,
2013-01-29 18:02:00,32.0,29.0,29.68,North,2,4.0,16.0,90,0.00,,,0.00,,2013-01-30 00:02:00,
2013-01-29 18:12:00,32.0,29.0,29.68,North,2,4.0,16.0,90,0.00,,,0.00,,2013-01-30 00:12:00,
2013-01-29 18:22:00,32.0,30.0,29.68,NNE,18,6.0,12.0,91,0.00,,,0.00,,2013-01-30 00:22:00,
2013-01-29 18:32:00,31.0,29.0,29.70,NNW,341,8.0,13.0,92,0.00,,,0.00,,2013-01-30 00:32:00,
2013-01-29 18:42:00,31.0,29.0,29.70,NNW,341,8.0,13.0,92,0.00,,,0.00,,2013-01-30 00:42:00,
2013-01-29 18:53:00,31.0,29.0,29.70,NE,47,0.0,10.0,91,0.00,,,0.00,,2013-01-30 00:53:00,
2013-01-29 19:02:00,31.0,28.0,29.71,North,9,4.0,8.0,90,0.00,,,0.00,,2013-01-30 01:02:00,
2013-01-29 19:11:00,31.0,28.0,29.71,North,9,4.0,8.0,90,0.00,,,0.00,,2013-01-30 01:11:00,
2013-01-29 19:22:00,31.0,29.0,29.68,NNE,32,3.0,11.0,91,0.00,,,0.00,,2013-01-30 01:22:00,
2013-01-29 19:32:00,30.0,28.0,29.67,NE,35,9.0,13.0,91,0.00,,,0.00,,2013-01-30 01:32:00,
2013-01-29 19:42:00,30.0,28.0,29.67,NE,35,9.0,13.0,91,0.00,,,0.00,,2013-01-30 01:42:00,
2013-01-29 19:52:00,30.0,28.0,29.70,North,2,9.0,11.0,91,0.00,,,0.00,,2013-01-30 01:52:00,
2013-01-29 20:02:00,30.0,27.0,29.71,East,92,6.0,12.0,89,0.00,,,0.00,,2013-01-30 02:02:00,
2013-01-29 20:12:00,29.0,26.0,29.71,ESE,106,5.0,13.0,89,0.00,,,0.00,,2013-01-30 02:12:00,
2013-01-29 20:21:00,29.0,26.0,29.71,ESE,106,5.0,13.0,89,0.00,,,0.00,,2013-01-30 02:21:00,
2013-01-29 20:33:00,29.0,26.0,29.72,NNE,28,8.0,15.0,89,0.00,,,0.00,,2013-01-30 02:33:00,
2013-01-29 20:42:00,29.0,26.0,29.72,NNE,28,8.0,15.0,89,0.00,,,0.00,,2013-01-30 02:42:00,
2013-01-29 20:52:00,29.0,26.0,29.74,North,2,9.0,15.0,90,0.00,,,0.00,,2013-01-30 02:52:00,
2013-01-29 21:02:00,29.0,26.0,29.72,ESE,102,7.0,15.0,90,0.00,,,0.00,,2013-01-30 03:02:00,
2013-01-29 21:11:00,29.0,26.0,29.72,ESE,102,7.0,15.0,90,0.00,,,0.00,,2013-01-30 03:11:00,
2013-01-29 21:22:00,29.0,26.0,29.70,ENE,59,6.0,16.0,89,0.00,,,0.00,,2013-01-30 03:22:00,
2013-01-29 21:32:00,29.0,26.0,29.69,ENE,66,5.0,13.0,90,0.00,,,0.00,,2013-01-30 03:32:00,
2013-01-29 21:42:00,29.0,26.0,29.69,ENE,66,5.0,13.0,90,0.00,,,0.00,,2013-01-30 03:42:00,
2013-01-29 21:51:00,29.0,26.0,29.70,North,358,10.0,13.0,89,0.00,,,0.00,,2013-01-30 03:51:00,
2013-01-29 22:02:00,29.0,26.0,29.74,NNE,16,7.0,14.0,90,0.00,,,0.00,,2013-01-30 04:02:00,
2013-01-29 22:11:00,29.0,26.0,29.74,NNE,16,7.0,14.0,90,0.00,,,0.00,,2013-01-30 04:11:00,
2013-01-29 22:22:00,29.0,26.0,29.74,NE,40,0.0,10.0,90,0.00,,,0.00,,2013-01-30 04:22:00,
2013-01-29 22:32:00,29.0,26.0,29.75,NE,54,5.0,16.0,89,0.00,,,0.00,,2013-01-30 04:32:00,
2013-01-29 22:41:00,29.0,26.0,29.75,NE,54,5.0,16.0,89,0.00,,,0.00,,2013-01-30 04:41:00,
2013-01-29 22:52:00,29.0,26.0,29.76,NE,47,8.0,12.0,89,0.00,,,0.00,,2013-01-30 04:52:00,
2013-01-29 23:03:00,29.0,26.0,29.72,ENE,57,7.0,16.0,89,0.00,,,0.00,,2013-01-30 05:03:00,
2013-01-29 23:12:00,29.0,26.0,29.74,NE,53,5.0,15.0,89,0.00,,,0.00,,2013-01-30 05:12:00,
2013-01-29 23:22:00,29.0,26.0,29.74,NE,53,5.0,15.0,89,0.00,,,0.00,,2013-01-30 05:22:00,
2013-01-29 23:32:00,28.0,25.0,29.73,NE,40,12.0,18.0,88,0.00,,,0.00,,2013-01-30 05:32:00,
2013-01-29 23:42:00,28.0,25.0,29.73,NE,40,12.0,18.0,88,0.00,,,0.00,,2013-01-30 05:42:00,
2013-01-29 23:52:00,28.0,25.0,29.72,ENE,57,6.0,14.0,89,0.00,,,0.00,,2013-01-30 05:52:00,